Flag for France Weather past 2 weeks in Grenoble, France

Now
37 °F

Scattered clouds.


Feels Like: 27 °F
Forecast: 27 / 40 °F
Wind: 21 mph from North

Location: Grenoble / St. Geoirs

Current Time: Jan 25, 2015 at 1:54:32 PM

Latest Report: Jan 25, 2015 at 1:30 PM


Visibility: N/A

Pressure: 30.30 "Hg

Humidity: 70%

Dew point: 28 °F

Location of GrenobleLocation

Historic Weather in Grenoble — Graph

°F

Grenoble temperature yesterday

Maximum temperature yesterday: 36 °F (at 12:00 PM)
Minimum temperature yesterday: 32 °F (at 6:30 AM)
Average temperature yesterday: 33 °F

Past Weeks' High & Low Weather Summary

 TemperatureHumidityPressure
High63 °F (Jan 10, 1:30 PM)100% (Jan 16, 8:00 PM)30.57 "Hg (Jan 16, 8:00 PM)
Low23 °F (Jan 18, 12:00 AM)50% (Jan 12, 2:00 PM)29.65 "Hg (Jan 21, 2:30 PM)
Average38 °F83%30.05 "Hg
* Reported Jan 10 12:00 Noon — Jan 25 12:30 PM, Grenoble, Weather by CustomWeather, © 2014

Note: Actual official high and low records may vary slightly from our data, if they occured in-between our weather recording intervals... More about our weather records

Advertising

Grenoble weather history for previous 24 hours

 ConditionsComfort  
Time TempWeatherWind HumidityBarometerVisibility
12:30 PM
Jan 25
36 °FBroken clouds.17 mph81%30.33 "HgN/A
12:00 PM34 °FScattered clouds.20 mph81%30.33 "HgN/A
11:30 AM34 °FClear.20 mph81%30.33 "HgN/A
11:00 AM34 °FPassing clouds.23 mph81%30.33 "HgN/A
10:30 AM32 °FPartly sunny.24 mph80%30.33 "HgN/A
10:00 AM32 °FPartly sunny.23 mph87%30.33 "HgN/A
9:30 AM32 °FPartly sunny.24 mph80%30.30 "HgN/A
9:00 AM32 °FScattered clouds.24 mph80%30.30 "HgN/A
8:30 AM32 °FPartly sunny.23 mph80%30.30 "HgN/A
8:00 AM32 °FPassing clouds.22 mph80%30.27 "HgN/A
7:30 AM32 °FPassing clouds.22 mph87%30.27 "HgN/A
7:00 AM32 °FPassing clouds.24 mph87%30.24 "HgN/A
6:30 AM32 °FPassing clouds.23 mph87%30.24 "HgN/A
6:00 AM32 °FPassing clouds.25 mph87%30.24 "HgN/A
5:30 AM32 °FPassing clouds.25 mph87%30.24 "HgN/A
5:00 AM32 °FPassing clouds.23 mph87%30.24 "HgN/A
4:30 AM34 °FOvercast.24 mph81%30.24 "HgN/A
3:30 AM34 °FOvercast.22 mph87%30.24 "HgN/A
3:00 AM34 °FOvercast.22 mph87%30.24 "HgN/A
2:30 AM34 °FLight rain. Overcast.21 mph87%30.24 "HgN/A
2:00 AM34 °FOvercast.20 mph87%30.24 "HgN/A
1:30 AM34 °FOvercast.20 mph87%30.24 "HgN/A
1:00 AM34 °FOvercast.17 mph87%30.24 "HgN/A
12:30 AM34 °FMostly cloudy.18 mph87%30.24 "HgN/A
12:00 AM34 °FMostly cloudy.20 mph81%30.24 "HgN/A
11:30 PM
Jan 24
34 °FMostly cloudy.22 mph81%30.24 "HgN/A
11:00 PM32 °FPassing clouds.21 mph87%30.21 "HgN/A
10:30 PM32 °FLight freezing rain. Mostly cloudy.21 mph87%30.21 "HgN/A
10:00 PM34 °FMostly cloudy.20 mph81%30.21 "HgN/A
9:30 PM32 °FLight freezing rain. Overcast.20 mph87%30.21 "HgN/A
9:00 PM32 °FLight rain. Low clouds.18 mph93%30.21 "HgN/A
8:30 PM32 °FLow clouds.20 mph93%30.18 "HgN/A
8:00 PM32 °FLight freezing rain. Low clouds.17 mph93%30.18 "HgN/A
7:30 PM32 °FOvercast.15 mph87%30.18 "HgN/A
7:00 PM32 °FPassing clouds.14 mph93%30.18 "HgN/A
6:30 PM32 °FMostly cloudy.10 mph93%30.15 "HgN/A
6:00 PM32 °FMostly cloudy.8 mph87%30.15 "HgN/A
5:30 PM32 °FLight freezing rain. Overcast.8 mph87%30.15 "HgN/A
5:00 PM32 °FLight freezing rain. Mostly cloudy.3 mph93%30.15 "Hg5 mi
4:30 PM32 °FLight snow. Ice fog.No wind93%30.15 "Hg3 mi
4:00 PM32 °FLight snow. Ice fog.6 mph93%30.15 "Hg3 mi
3:30 PM32 °FLight rain. Ice fog.5 mph93%30.15 "Hg3 mi
3:00 PM34 °FLight rain. More clouds than sun.8 mph87%30.15 "Hg4 mi
2:30 PM34 °FLight rain. More clouds than sun.8 mph87%30.15 "Hg4 mi
2:00 PM34 °FMostly cloudy.5 mph81%30.15 "HgN/A
1:30 PM34 °FMore clouds than sun.14 mph81%30.15 "HgN/A
1:00 PM34 °FMore clouds than sun.14 mph81%30.18 "HgN/A
Weather by CustomWeather, © 2014

See weather overviewHow to use our weather pages